owner,sensor,date,latitude,longitude,air_temperature,qcFlag 
COMPS,ioos:station:USF.COMPS:EGK:1,2009-09-01T00:00:00Z,27.6010,-82.7510,29.53,1111122 
COMPS,ioos:station:USF.COMPS:EGK:1,2009-09-01T00:06:00Z,27.6010,-82.7510,29.51,1111122 
COMPS,ioos:station:USF.COMPS:EGK:1,2009-09-01T00:12:00Z,27.6010,-82.7510,29.51,1111122 
COMPS,ioos:station:USF.COMPS:EGK:1,2009-09-01T00:18:00Z,27.6010,-82.7510,29.51,1111122 
COMPS,ioos:station:USF.COMPS:EGK:1,2009-09-01T00:24:00Z,27.6010,-82.7510,29.5,1111122 
COMPS,ioos:station:USF.COMPS:EGK:1,2009-09-01T00:30:00Z,27.6010,-82.7510,29.54,1111122 
COMPS,ioos:station:USF.COMPS:EGK:1,2009-09-01T00:36:00Z,27.6010,-82.7510,29.54,1111122 
COMPS,ioos:station:USF.COMPS:EGK:1,2009-09-01T00:42:00Z,27.6010,-82.7510,29.59,1111122 
COMPS,ioos:station:USF.COMPS:EGK:1,2009-09-01T00:48:00Z,27.6010,-82.7510,29.64,1111122 
COMPS,ioos:station:USF.COMPS:EGK:1,2009-09-01T00:54:00Z,27.6010,-82.7510,29.67,1111122 
COMPS,ioos:station:USF.COMPS:EGK:1,2009-09-01T01:00:00Z,27.6010,-82.7510,29.55,1111122 
COMPS,ioos:station:USF.COMPS:EGK:1,2009-09-01T01:06:00Z,27.6010,-82.7510,29.57,1111122 
COMPS,ioos:station:USF.COMPS:EGK:1,2009-09-01T01:12:00Z,27.6010,-82.7510,29.63,1111122 
COMPS,ioos:station:USF.COMPS:EGK:1,2009-09-01T01:18:00Z,27.6010,-82.7510,29.67,1111122 
COMPS,ioos:station:USF.COMPS:EGK:1,2009-09-01T01:24:00Z,27.6010,-82.7510,29.67,1111122 
COMPS,ioos:station:USF.COMPS:EGK:1,2009-09-01T01:30:00Z,27.6010,-82.7510,29.66,1111122 
COMPS,ioos:station:USF.COMPS:EGK:1,2009-09-01T01:36:00Z,27.6010,-82.7510,29.55,1111122 
COMPS,ioos:station:USF.COMPS:EGK:1,2009-09-01T01:42:00Z,27.6010,-82.7510,29.56,1111122 
COMPS,ioos:station:USF.COMPS:EGK:1,2009-09-01T01:48:00Z,27.6010,-82.7510,29.56,1111122 
COMPS,ioos:station:USF.COMPS:EGK:1,2009-09-01T01:54:00Z,27.6010,-82.7510,29.61,1111122 
COMPS,ioos:station:USF.COMPS:EGK:1,2009-09-01T02:00:00Z,27.6010,-82.7510,29.55,1111122 
COMPS,ioos:station:USF.COMPS:EGK:1,2009-09-01T02:06:00Z,27.6010,-82.7510,29.53,1111122 
COMPS,ioos:station:USF.COMPS:EGK:1,2009-09-01T02:12:00Z,27.6010,-82.7510,29.53,1111122 
COMPS,ioos:station:USF.COMPS:EGK:1,2009-09-01T02:18:00Z,27.6010,-82.7510,29.47,1111122 
COMPS,ioos:station:USF.COMPS:EGK:1,2009-09-01T02:24:00Z,27.6010,-82.7510,29.43,1111122 
COMPS,ioos:station:USF.COMPS:EGK:1,2009-09-01T02:30:00Z,27.6010,-82.7510,29.4,1111122 
COMPS,ioos:station:USF.COMPS:EGK:1,2009-09-01T02:36:00Z,27.6010,-82.7510,29.4,1111122 
COMPS,ioos:station:USF.COMPS:EGK:1,2009-09-01T02:42:00Z,27.6010,-82.7510,29.39,1111122 
COMPS,ioos:station:USF.COMPS:EGK:1,2009-09-01T02:48:00Z,27.6010,-82.7510,29.31,1111122 
COMPS,ioos:station:USF.COMPS:EGK:1,2009-09-01T02:54:00Z,27.6010,-82.7510,29.06,1111122 
COMPS,ioos:station:USF.COMPS:EGK:1,2009-09-01T03:00:00Z,27.6010,-82.7510,27.91,1111122 
COMPS,ioos:station:USF.COMPS:EGK:1,2009-09-01T03:06:00Z,27.6010,-82.7510,27.81,1111122 
COMPS,ioos:station:USF.COMPS:EGK:1,2009-09-01T03:12:00Z,27.6010,-82.7510,27.69,1111122 
COMPS,ioos:station:USF.COMPS:EGK:1,2009-09-01T03:18:00Z,27.6010,-82.7510,27.63,1111122 
COMPS,ioos:station:USF.COMPS:EGK:1,2009-09-01T03:24:00Z,27.6010,-82.7510,27.46,1111122 
COMPS,ioos:station:USF.COMPS:EGK:1,2009-09-01T03:30:00Z,27.6010,-82.7510,27.59,1111122 
COMPS,ioos:station:USF.COMPS:EGK:1,2009-09-01T03:36:00Z,27.6010,-82.7510,27.69,1111122 
COMPS,ioos:station:USF.COMPS:EGK:1,2009-09-01T03:42:00Z,27.6010,-82.7510,27.72,1111122 
COMPS,ioos:station:USF.COMPS:EGK:1,2009-09-01T03:48:00Z,27.6010,-82.7510,27.76,1111122 
COMPS,ioos:station:USF.COMPS:EGK:1,2009-09-01T03:54:00Z,27.6010,-82.7510,27.69,1111122 
COMPS,ioos:station:USF.COMPS:EGK:1,2009-09-01T04:00:00Z,27.6010,-82.7510,27.61,1111122 
COMPS,ioos:station:USF.COMPS:EGK:1,2009-09-01T04:06:00Z,27.6010,-82.7510,27.66,1111122 
COMPS,ioos:station:USF.COMPS:EGK:1,2009-09-01T04:12:00Z,27.6010,-82.7510,27.76,1111122 
COMPS,ioos:station:USF.COMPS:EGK:1,2009-09-01T04:18:00Z,27.6010,-82.7510,27.84,1111122 
COMPS,ioos:station:USF.COMPS:EGK:1,2009-09-01T04:24:00Z,27.6010,-82.7510,27.98,1111122 
COMPS,ioos:station:USF.COMPS:EGK:1,2009-09-01T04:30:00Z,27.6010,-82.7510,28.03,1111122 
COMPS,ioos:station:USF.COMPS:EGK:1,2009-09-01T04:36:00Z,27.6010,-82.7510,27.94,1111122 
COMPS,ioos:station:USF.COMPS:EGK:1,2009-09-01T04:42:00Z,27.6010,-82.7510,27.97,1111122 
COMPS,ioos:station:USF.COMPS:EGK:1,2009-09-01T04:48:00Z,27.6010,-82.7510,28.05,1111122 
COMPS,ioos:station:USF.COMPS:EGK:1,2009-09-01T04:54:00Z,27.6010,-82.7510,28.13,1111122 
COMPS,ioos:station:USF.COMPS:EGK:1,2009-09-01T05:00:00Z,27.6010,-82.7510,28.09,1111122 
COMPS,ioos:station:USF.COMPS:EGK:1,2009-09-01T05:06:00Z,27.6010,-82.7510,28.07,1111122 
COMPS,ioos:station:USF.COMPS:EGK:1,2009-09-01T05:12:00Z,27.6010,-82.7510,28.1,1111122 
COMPS,ioos:station:USF.COMPS:EGK:1,2009-09-01T05:18:00Z,27.6010,-82.7510,27.94,1111122 
COMPS,ioos:station:USF.COMPS:EGK:1,2009-09-01T05:24:00Z,27.6010,-82.7510,27.61,1111122 
COMPS,ioos:station:USF.COMPS:EGK:1,2009-09-01T05:30:00Z,27.6010,-82.7510,27.6,1111122 
COMPS,ioos:station:USF.COMPS:EGK:1,2009-09-01T05:36:00Z,27.6010,-82.7510,27.36,1111122 
COMPS,ioos:station:USF.COMPS:EGK:1,2009-09-01T05:42:00Z,27.6010,-82.7510,27.36,1111122 
COMPS,ioos:station:USF.COMPS:EGK:1,2009-09-01T05:48:00Z,27.6010,-82.7510,27.46,1111122 
COMPS,ioos:station:USF.COMPS:EGK:1,2009-09-01T05:54:00Z,27.6010,-82.7510,27.81,1111122 
COMPS,ioos:station:USF.COMPS:EGK:1,2009-09-01T06:00:00Z,27.6010,-82.7510,27.75,1111122 
COMPS,ioos:station:USF.COMPS:EGK:1,2009-09-01T06:06:00Z,27.6010,-82.7510,27.53,1111122 
COMPS,ioos:station:USF.COMPS:EGK:1,2009-09-01T06:12:00Z,27.6010,-82.7510,27.3,1111122 
COMPS,ioos:station:USF.COMPS:EGK:1,2009-09-01T06:18:00Z,27.6010,-82.7510,27.35,1111122 
COMPS,ioos:station:USF.COMPS:EGK:1,2009-09-01T06:24:00Z,27.6010,-82.7510,27.43,1111122 
COMPS,ioos:station:USF.COMPS:EGK:1,2009-09-01T06:30:00Z,27.6010,-82.7510,27.73,1111122 
COMPS,ioos:station:USF.COMPS:EGK:1,2009-09-01T06:36:00Z,27.6010,-82.7510,27.76,1111122 
COMPS,ioos:station:USF.COMPS:EGK:1,2009-09-01T06:42:00Z,27.6010,-82.7510,27.8,1111122 
COMPS,ioos:station:USF.COMPS:EGK:1,2009-09-01T06:48:00Z,27.6010,-82.7510,27.77,1111122 
COMPS,ioos:station:USF.COMPS:EGK:1,2009-09-01T06:54:00Z,27.6010,-82.7510,27.72,1111122 
COMPS,ioos:station:USF.COMPS:EGK:1,2009-09-01T07:00:00Z,27.6010,-82.7510,27.58,1111122 
COMPS,ioos:station:USF.COMPS:EGK:1,2009-09-01T07:06:00Z,27.6010,-82.7510,27.52,1111122 
COMPS,ioos:station:USF.COMPS:EGK:1,2009-09-01T07:12:00Z,27.6010,-82.7510,27.57,1111122 
COMPS,ioos:station:USF.COMPS:EGK:1,2009-09-01T07:18:00Z,27.6010,-82.7510,27.44,1111122 
COMPS,ioos:station:USF.COMPS:EGK:1,2009-09-01T07:24:00Z,27.6010,-82.7510,27.39,1111122 
COMPS,ioos:station:USF.COMPS:EGK:1,2009-09-01T07:30:00Z,27.6010,-82.7510,27.39,1111122 
COMPS,ioos:station:USF.COMPS:EGK:1,2009-09-01T07:36:00Z,27.6010,-82.7510,27.39,1111122 
COMPS,ioos:station:USF.COMPS:EGK:1,2009-09-01T07:42:00Z,27.6010,-82.7510,27.28,1111122 
COMPS,ioos:station:USF.COMPS:EGK:1,2009-09-01T07:48:00Z,27.6010,-82.7510,27.24,1111122 
COMPS,ioos:station:USF.COMPS:EGK:1,2009-09-01T07:54:00Z,27.6010,-82.7510,27.42,1111122 
COMPS,ioos:station:USF.COMPS:EGK:1,2009-09-01T08:00:00Z,27.6010,-82.7510,27.3,1111122 
COMPS,ioos:station:USF.COMPS:EGK:1,2009-09-01T08:06:00Z,27.6010,-82.7510,27.41,1111122 
COMPS,ioos:station:USF.COMPS:EGK:1,2009-09-01T08:12:00Z,27.6010,-82.7510,27.33,1111122 
COMPS,ioos:station:USF.COMPS:EGK:1,2009-09-01T08:18:00Z,27.6010,-82.7510,27.26,1111122 
COMPS,ioos:station:USF.COMPS:EGK:1,2009-09-01T08:24:00Z,27.6010,-82.7510,27.11,1111122 
COMPS,ioos:station:USF.COMPS:EGK:1,2009-09-01T08:30:00Z,27.6010,-82.7510,27.12,1111122 
COMPS,ioos:station:USF.COMPS:EGK:1,2009-09-01T08:36:00Z,27.6010,-82.7510,27.16,1111122 
COMPS,ioos:station:USF.COMPS:EGK:1,2009-09-01T08:42:00Z,27.6010,-82.7510,27.09,1111122 
COMPS,ioos:station:USF.COMPS:EGK:1,2009-09-01T08:48:00Z,27.6010,-82.7510,26.98,1111122 
COMPS,ioos:station:USF.COMPS:EGK:1,2009-09-01T08:54:00Z,27.6010,-82.7510,27.17,1111122 
COMPS,ioos:station:USF.COMPS:EGK:1,2009-09-01T09:00:00Z,27.6010,-82.7510,27.1,1111122 
COMPS,ioos:station:USF.COMPS:EGK:1,2009-09-01T09:06:00Z,27.6010,-82.7510,27.03,1111122 
COMPS,ioos:station:USF.COMPS:EGK:1,2009-09-01T09:12:00Z,27.6010,-82.7510,27.1,1111122 
COMPS,ioos:station:USF.COMPS:EGK:1,2009-09-01T09:18:00Z,27.6010,-82.7510,27.04,1111122 
COMPS,ioos:station:USF.COMPS:EGK:1,2009-09-01T09:24:00Z,27.6010,-82.7510,27.06,1111122 
COMPS,ioos:station:USF.COMPS:EGK:1,2009-09-01T09:30:00Z,27.6010,-82.7510,26.99,1111122 
COMPS,ioos:station:USF.COMPS:EGK:1,2009-09-01T09:36:00Z,27.6010,-82.7510,27.01,1111122 
COMPS,ioos:station:USF.COMPS:EGK:1,2009-09-01T09:42:00Z,27.6010,-82.7510,27.01,1111122 
COMPS,ioos:station:USF.COMPS:EGK:1,2009-09-01T09:48:00Z,27.6010,-82.7510,27.1,1111122 
COMPS,ioos:station:USF.COMPS:EGK:1,2009-09-01T09:54:00Z,27.6010,-82.7510,27.17,1111122 
COMPS,ioos:station:USF.COMPS:EGK:1,2009-09-01T10:00:00Z,27.6010,-82.7510,27.03,1111122 
COMPS,ioos:station:USF.COMPS:EGK:1,2009-09-01T10:06:00Z,27.6010,-82.7510,27.0,1111122 
COMPS,ioos:station:USF.COMPS:EGK:1,2009-09-01T10:12:00Z,27.6010,-82.7510,27.0,1111122 
COMPS,ioos:station:USF.COMPS:EGK:1,2009-09-01T10:18:00Z,27.6010,-82.7510,27.02,1111122 
COMPS,ioos:station:USF.COMPS:EGK:1,2009-09-01T10:24:00Z,27.6010,-82.7510,27.02,1111122 
COMPS,ioos:station:USF.COMPS:EGK:1,2009-09-01T10:30:00Z,27.6010,-82.7510,27.03,1111122 
COMPS,ioos:station:USF.COMPS:EGK:1,2009-09-01T10:36:00Z,27.6010,-82.7510,27.01,1111122 
COMPS,ioos:station:USF.COMPS:EGK:1,2009-09-01T10:42:00Z,27.6010,-82.7510,27.0,1111122 
COMPS,ioos:station:USF.COMPS:EGK:1,2009-09-01T10:48:00Z,27.6010,-82.7510,26.97,1111122 
COMPS,ioos:station:USF.COMPS:EGK:1,2009-09-01T10:54:00Z,27.6010,-82.7510,26.93,1111122 
COMPS,ioos:station:USF.COMPS:EGK:1,2009-09-01T11:00:00Z,27.6010,-82.7510,26.67,1111122 
COMPS,ioos:station:USF.COMPS:EGK:1,2009-09-01T11:06:00Z,27.6010,-82.7510,26.56,1111122 
COMPS,ioos:station:USF.COMPS:EGK:1,2009-09-01T11:12:00Z,27.6010,-82.7510,26.5,1111122 
COMPS,ioos:station:USF.COMPS:EGK:1,2009-09-01T11:18:00Z,27.6010,-82.7510,26.36,1111122 
COMPS,ioos:station:USF.COMPS:EGK:1,2009-09-01T11:24:00Z,27.6010,-82.7510,26.41,1111122 
COMPS,ioos:station:USF.COMPS:EGK:1,2009-09-01T11:30:00Z,27.6010,-82.7510,26.4,1111122 
COMPS,ioos:station:USF.COMPS:EGK:1,2009-09-01T11:36:00Z,27.6010,-82.7510,26.36,1111122 
COMPS,ioos:station:USF.COMPS:EGK:1,2009-09-01T11:42:00Z,27.6010,-82.7510,26.4,1111122 
COMPS,ioos:station:USF.COMPS:EGK:1,2009-09-01T11:48:00Z,27.6010,-82.7510,26.45,1111122 
COMPS,ioos:station:USF.COMPS:EGK:1,2009-09-01T11:54:00Z,27.6010,-82.7510,26.43,1111122 
COMPS,ioos:station:USF.COMPS:EGK:1,2009-09-01T12:00:00Z,27.6010,-82.7510,26.41,1111122 
COMPS,ioos:station:USF.COMPS:EGK:1,2009-09-01T12:06:00Z,27.6010,-82.7510,26.51,1111122 
COMPS,ioos:station:USF.COMPS:EGK:1,2009-09-01T12:12:00Z,27.6010,-82.7510,26.64,1111122 
COMPS,ioos:station:USF.COMPS:EGK:1,2009-09-01T12:18:00Z,27.6010,-82.7510,26.72,1111122 
COMPS,ioos:station:USF.COMPS:EGK:1,2009-09-01T12:24:00Z,27.6010,-82.7510,26.57,1111122 
COMPS,ioos:station:USF.COMPS:EGK:1,2009-09-01T12:30:00Z,27.6010,-82.7510,26.59,1111122 
COMPS,ioos:station:USF.COMPS:EGK:1,2009-09-01T12:36:00Z,27.6010,-82.7510,26.58,1111122 
COMPS,ioos:station:USF.COMPS:EGK:1,2009-09-01T12:42:00Z,27.6010,-82.7510,26.58,1111122 
COMPS,ioos:station:USF.COMPS:EGK:1,2009-09-01T12:48:00Z,27.6010,-82.7510,26.64,1111122 
COMPS,ioos:station:USF.COMPS:EGK:1,2009-09-01T12:54:00Z,27.6010,-82.7510,26.8,1111122 
COMPS,ioos:station:USF.COMPS:EGK:1,2009-09-01T13:00:00Z,27.6010,-82.7510,26.76,1111122 
COMPS,ioos:station:USF.COMPS:EGK:1,2009-09-01T13:06:00Z,27.6010,-82.7510,26.78,1111122 
COMPS,ioos:station:USF.COMPS:EGK:1,2009-09-01T13:12:00Z,27.6010,-82.7510,26.84,1111122 
COMPS,ioos:station:USF.COMPS:EGK:1,2009-09-01T13:18:00Z,27.6010,-82.7510,26.82,1111122 
COMPS,ioos:station:USF.COMPS:EGK:1,2009-09-01T13:24:00Z,27.6010,-82.7510,26.71,1111122 
COMPS,ioos:station:USF.COMPS:EGK:1,2009-09-01T13:30:00Z,27.6010,-82.7510,26.63,1111122 
COMPS,ioos:station:USF.COMPS:EGK:1,2009-09-01T13:36:00Z,27.6010,-82.7510,26.54,1111122 
COMPS,ioos:station:USF.COMPS:EGK:1,2009-09-01T13:42:00Z,27.6010,-82.7510,26.55,1111122 
COMPS,ioos:station:USF.COMPS:EGK:1,2009-09-01T13:48:00Z,27.6010,-82.7510,26.58,1111122 
COMPS,ioos:station:USF.COMPS:EGK:1,2009-09-01T13:54:00Z,27.6010,-82.7510,26.64,1111122 
COMPS,ioos:station:USF.COMPS:EGK:1,2009-09-01T14:00:00Z,27.6010,-82.7510,26.61,1111122 
COMPS,ioos:station:USF.COMPS:EGK:1,2009-09-01T14:06:00Z,27.6010,-82.7510,26.65,1111122 
COMPS,ioos:station:USF.COMPS:EGK:1,2009-09-01T14:12:00Z,27.6010,-82.7510,26.7,1111122 
COMPS,ioos:station:USF.COMPS:EGK:1,2009-09-01T14:18:00Z,27.6010,-82.7510,26.7,1111122 
COMPS,ioos:station:USF.COMPS:EGK:1,2009-09-01T14:24:00Z,27.6010,-82.7510,26.74,1111122 
COMPS,ioos:station:USF.COMPS:EGK:1,2009-09-01T14:30:00Z,27.6010,-82.7510,26.71,1111122 
COMPS,ioos:station:USF.COMPS:EGK:1,2009-09-01T14:36:00Z,27.6010,-82.7510,26.71,1111122 
COMPS,ioos:station:USF.COMPS:EGK:1,2009-09-01T14:42:00Z,27.6010,-82.7510,26.72,1111122 
COMPS,ioos:station:USF.COMPS:EGK:1,2009-09-01T14:48:00Z,27.6010,-82.7510,26.73,1111122 
COMPS,ioos:station:USF.COMPS:EGK:1,2009-09-01T14:54:00Z,27.6010,-82.7510,26.8,1111122 
COMPS,ioos:station:USF.COMPS:EGK:1,2009-09-01T15:00:00Z,27.6010,-82.7510,26.76,1111122 
COMPS,ioos:station:USF.COMPS:EGK:1,2009-09-01T15:06:00Z,27.6010,-82.7510,26.81,1111122 
COMPS,ioos:station:USF.COMPS:EGK:1,2009-09-01T15:12:00Z,27.6010,-82.7510,26.84,1111122 
COMPS,ioos:station:USF.COMPS:EGK:1,2009-09-01T15:18:00Z,27.6010,-82.7510,26.92,1111122 
COMPS,ioos:station:USF.COMPS:EGK:1,2009-09-01T15:24:00Z,27.6010,-82.7510,26.98,1111122 
COMPS,ioos:station:USF.COMPS:EGK:1,2009-09-01T15:30:00Z,27.6010,-82.7510,27.09,1111122 
COMPS,ioos:station:USF.COMPS:EGK:1,2009-09-01T15:36:00Z,27.6010,-82.7510,27.12,1111122 
COMPS,ioos:station:USF.COMPS:EGK:1,2009-09-01T15:42:00Z,27.6010,-82.7510,27.11,1111122 
COMPS,ioos:station:USF.COMPS:EGK:1,2009-09-01T15:48:00Z,27.6010,-82.7510,27.2,1111122 
COMPS,ioos:station:USF.COMPS:EGK:1,2009-09-01T15:54:00Z,27.6010,-82.7510,27.21,1111122 
COMPS,ioos:station:USF.COMPS:EGK:1,2009-09-01T16:00:00Z,27.6010,-82.7510,27.13,1111122 
COMPS,ioos:station:USF.COMPS:EGK:1,2009-09-01T16:06:00Z,27.6010,-82.7510,27.17,1111122 
COMPS,ioos:station:USF.COMPS:EGK:1,2009-09-01T16:12:00Z,27.6010,-82.7510,27.18,1111122 
COMPS,ioos:station:USF.COMPS:EGK:1,2009-09-01T16:18:00Z,27.6010,-82.7510,27.19,1111122 
COMPS,ioos:station:USF.COMPS:EGK:1,2009-09-01T16:24:00Z,27.6010,-82.7510,27.18,1111122 
COMPS,ioos:station:USF.COMPS:EGK:1,2009-09-01T16:30:00Z,27.6010,-82.7510,27.16,1111122 
COMPS,ioos:station:USF.COMPS:EGK:1,2009-09-01T16:36:00Z,27.6010,-82.7510,27.19,1111122 
COMPS,ioos:station:USF.COMPS:EGK:1,2009-09-01T16:42:00Z,27.6010,-82.7510,27.18,1111122 
COMPS,ioos:station:USF.COMPS:EGK:1,2009-09-01T16:48:00Z,27.6010,-82.7510,27.19,1111122 
COMPS,ioos:station:USF.COMPS:EGK:1,2009-09-01T16:54:00Z,27.6010,-82.7510,27.17,1111122 
COMPS,ioos:station:USF.COMPS:EGK:1,2009-09-01T17:00:00Z,27.6010,-82.7510,26.97,1111122 
COMPS,ioos:station:USF.COMPS:EGK:1,2009-09-01T17:06:00Z,27.6010,-82.7510,26.78,1111122 
COMPS,ioos:station:USF.COMPS:EGK:1,2009-09-01T17:12:00Z,27.6010,-82.7510,26.67,1111122 
COMPS,ioos:station:USF.COMPS:EGK:1,2009-09-01T17:18:00Z,27.6010,-82.7510,26.57,1111122 
COMPS,ioos:station:USF.COMPS:EGK:1,2009-09-01T17:24:00Z,27.6010,-82.7510,26.64,1111122 
COMPS,ioos:station:USF.COMPS:EGK:1,2009-09-01T17:30:00Z,27.6010,-82.7510,26.58,1111122 
COMPS,ioos:station:USF.COMPS:EGK:1,2009-09-01T17:36:00Z,27.6010,-82.7510,26.44,1111122 
COMPS,ioos:station:USF.COMPS:EGK:1,2009-09-01T17:42:00Z,27.6010,-82.7510,26.56,1111122 
COMPS,ioos:station:USF.COMPS:EGK:1,2009-09-01T17:48:00Z,27.6010,-82.7510,26.67,1111122 
COMPS,ioos:station:USF.COMPS:EGK:1,2009-09-01T17:54:00Z,27.6010,-82.7510,26.61,1111122 
COMPS,ioos:station:USF.COMPS:EGK:1,2009-09-01T18:00:00Z,27.6010,-82.7510,26.57,1111122 
COMPS,ioos:station:USF.COMPS:EGK:1,2009-09-01T18:06:00Z,27.6010,-82.7510,26.57,1111122 
COMPS,ioos:station:USF.COMPS:EGK:1,2009-09-01T18:12:00Z,27.6010,-82.7510,26.57,1111122 
COMPS,ioos:station:USF.COMPS:EGK:1,2009-09-01T18:18:00Z,27.6010,-82.7510,26.45,1111122 
COMPS,ioos:station:USF.COMPS:EGK:1,2009-09-01T18:24:00Z,27.6010,-82.7510,26.48,1111122 
COMPS,ioos:station:USF.COMPS:EGK:1,2009-09-01T18:30:00Z,27.6010,-82.7510,26.51,1111122 
COMPS,ioos:station:USF.COMPS:EGK:1,2009-09-01T18:36:00Z,27.6010,-82.7510,26.59,1111122 
COMPS,ioos:station:USF.COMPS:EGK:1,2009-09-01T18:42:00Z,27.6010,-82.7510,26.78,1111122 
COMPS,ioos:station:USF.COMPS:EGK:1,2009-09-01T18:48:00Z,27.6010,-82.7510,27.11,1111122 
COMPS,ioos:station:USF.COMPS:EGK:1,2009-09-01T18:54:00Z,27.6010,-82.7510,27.1,1111122 
COMPS,ioos:station:USF.COMPS:EGK:1,2009-09-01T19:00:00Z,27.6010,-82.7510,27.16,1111122 
COMPS,ioos:station:USF.COMPS:EGK:1,2009-09-01T19:06:00Z,27.6010,-82.7510,27.21,1111122 
COMPS,ioos:station:USF.COMPS:EGK:1,2009-09-01T19:12:00Z,27.6010,-82.7510,27.23,1111122 
COMPS,ioos:station:USF.COMPS:EGK:1,2009-09-01T19:18:00Z,27.6010,-82.7510,27.31,1111122 
COMPS,ioos:station:USF.COMPS:EGK:1,2009-09-01T19:24:00Z,27.6010,-82.7510,27.29,1111122 
COMPS,ioos:station:USF.COMPS:EGK:1,2009-09-01T19:30:00Z,27.6010,-82.7510,27.35,1111122 
COMPS,ioos:station:USF.COMPS:EGK:1,2009-09-01T19:36:00Z,27.6010,-82.7510,27.42,1111122 
COMPS,ioos:station:USF.COMPS:EGK:1,2009-09-01T19:42:00Z,27.6010,-82.7510,27.48,1111122 
COMPS,ioos:station:USF.COMPS:EGK:1,2009-09-01T19:48:00Z,27.6010,-82.7510,27.5,1111122 
COMPS,ioos:station:USF.COMPS:EGK:1,2009-09-01T19:54:00Z,27.6010,-82.7510,27.6,1111122 
COMPS,ioos:station:USF.COMPS:EGK:1,2009-09-02T13:00:00Z,27.6010,-82.7510,25.61,1111122 
COMPS,ioos:station:USF.COMPS:EGK:1,2009-09-02T13:06:00Z,27.6010,-82.7510,25.62,1111122 
COMPS,ioos:station:USF.COMPS:EGK:1,2009-09-02T13:12:00Z,27.6010,-82.7510,25.61,1111122 
COMPS,ioos:station:USF.COMPS:EGK:1,2009-09-02T13:18:00Z,27.6010,-82.7510,25.57,1111122 
COMPS,ioos:station:USF.COMPS:EGK:1,2009-09-02T13:24:00Z,27.6010,-82.7510,25.64,1111122 
COMPS,ioos:station:USF.COMPS:EGK:1,2009-09-02T13:30:00Z,27.6010,-82.7510,25.65,1111122 
COMPS,ioos:station:USF.COMPS:EGK:1,2009-09-02T13:36:00Z,27.6010,-82.7510,25.48,1111122 
COMPS,ioos:station:USF.COMPS:EGK:1,2009-09-02T13:42:00Z,27.6010,-82.7510,25.5,1111122 
COMPS,ioos:station:USF.COMPS:EGK:1,2009-09-02T13:48:00Z,27.6010,-82.7510,25.4,1111122 
COMPS,ioos:station:USF.COMPS:EGK:1,2009-09-02T13:54:00Z,27.6010,-82.7510,25.36,1111122 
COMPS,ioos:station:USF.COMPS:EGK:1,2009-09-02T14:00:00Z,27.6010,-82.7510,25.37,1111122 
COMPS,ioos:station:USF.COMPS:EGK:1,2009-09-02T14:06:00Z,27.6010,-82.7510,25.34,1111122 
COMPS,ioos:station:USF.COMPS:EGK:1,2009-09-02T14:12:00Z,27.6010,-82.7510,25.48,1111122 
COMPS,ioos:station:USF.COMPS:EGK:1,2009-09-02T14:18:00Z,27.6010,-82.7510,25.5,1111122 
COMPS,ioos:station:USF.COMPS:EGK:1,2009-09-02T14:24:00Z,27.6010,-82.7510,25.52,1111122 
COMPS,ioos:station:USF.COMPS:EGK:1,2009-09-02T14:30:00Z,27.6010,-82.7510,25.54,1111122 
COMPS,ioos:station:USF.COMPS:EGK:1,2009-09-02T14:36:00Z,27.6010,-82.7510,25.52,1111122 
COMPS,ioos:station:USF.COMPS:EGK:1,2009-09-02T14:42:00Z,27.6010,-82.7510,25.54,1111122 
COMPS,ioos:station:USF.COMPS:EGK:1,2009-09-02T14:48:00Z,27.6010,-82.7510,25.69,1111122 
COMPS,ioos:station:USF.COMPS:EGK:1,2009-09-02T14:54:00Z,27.6010,-82.7510,25.71,1111122 
COMPS,ioos:station:USF.COMPS:EGK:1,2009-09-02T15:00:00Z,27.6010,-82.7510,25.66,1111122 
COMPS,ioos:station:USF.COMPS:EGK:1,2009-09-02T15:06:00Z,27.6010,-82.7510,25.78,1111122 
COMPS,ioos:station:USF.COMPS:EGK:1,2009-09-02T15:12:00Z,27.6010,-82.7510,25.84,1111122 
COMPS,ioos:station:USF.COMPS:EGK:1,2009-09-02T15:18:00Z,27.6010,-82.7510,25.88,1111122 
COMPS,ioos:station:USF.COMPS:EGK:1,2009-09-02T15:24:00Z,27.6010,-82.7510,25.95,1111122 
COMPS,ioos:station:USF.COMPS:EGK:1,2009-09-02T15:30:00Z,27.6010,-82.7510,26.07,1111122 
COMPS,ioos:station:USF.COMPS:EGK:1,2009-09-02T15:36:00Z,27.6010,-82.7510,26.16,1111122 
COMPS,ioos:station:USF.COMPS:EGK:1,2009-09-02T15:42:00Z,27.6010,-82.7510,26.18,1111122 
COMPS,ioos:station:USF.COMPS:EGK:1,2009-09-02T15:48:00Z,27.6010,-82.7510,26.03,1111122 
COMPS,ioos:station:USF.COMPS:EGK:1,2009-09-02T15:54:00Z,27.6010,-82.7510,26.25,1111122 
COMPS,ioos:station:USF.COMPS:EGK:1,2009-09-02T16:00:00Z,27.6010,-82.7510,26.24,1111122 
COMPS,ioos:station:USF.COMPS:EGK:1,2009-09-02T16:06:00Z,27.6010,-82.7510,26.08,1111122 
COMPS,ioos:station:USF.COMPS:EGK:1,2009-09-02T16:12:00Z,27.6010,-82.7510,26.15,1111122 
COMPS,ioos:station:USF.COMPS:EGK:1,2009-09-02T16:18:00Z,27.6010,-82.7510,26.1,1111122 
COMPS,ioos:station:USF.COMPS:EGK:1,2009-09-02T16:24:00Z,27.6010,-82.7510,26.12,1111122 
COMPS,ioos:station:USF.COMPS:EGK:1,2009-09-02T16:30:00Z,27.6010,-82.7510,26.26,1111122 
COMPS,ioos:station:USF.COMPS:EGK:1,2009-09-02T16:36:00Z,27.6010,-82.7510,26.39,1111122 
COMPS,ioos:station:USF.COMPS:EGK:1,2009-09-02T16:42:00Z,27.6010,-82.7510,26.54,1111122 
COMPS,ioos:station:USF.COMPS:EGK:1,2009-09-02T16:48:00Z,27.6010,-82.7510,26.46,1111122 
COMPS,ioos:station:USF.COMPS:EGK:1,2009-09-02T16:54:00Z,27.6010,-82.7510,26.45,1111122 
COMPS,ioos:station:USF.COMPS:EGK:1,2009-09-02T17:00:00Z,27.6010,-82.7510,26.57,1111122 
COMPS,ioos:station:USF.COMPS:EGK:1,2009-09-02T17:06:00Z,27.6010,-82.7510,26.56,1111122 
COMPS,ioos:station:USF.COMPS:EGK:1,2009-09-02T17:12:00Z,27.6010,-82.7510,26.68,1111122 
COMPS,ioos:station:USF.COMPS:EGK:1,2009-09-02T17:18:00Z,27.6010,-82.7510,26.7,1111122 
COMPS,ioos:station:USF.COMPS:EGK:1,2009-09-02T17:24:00Z,27.6010,-82.7510,26.8,1111122 
COMPS,ioos:station:USF.COMPS:EGK:1,2009-09-02T17:30:00Z,27.6010,-82.7510,26.89,1111122 
COMPS,ioos:station:USF.COMPS:EGK:1,2009-09-02T17:36:00Z,27.6010,-82.7510,26.99,1111122 
COMPS,ioos:station:USF.COMPS:EGK:1,2009-09-02T17:42:00Z,27.6010,-82.7510,27.01,1111122 
COMPS,ioos:station:USF.COMPS:EGK:1,2009-09-02T17:48:00Z,27.6010,-82.7510,26.98,1111122 
COMPS,ioos:station:USF.COMPS:EGK:1,2009-09-02T17:54:00Z,27.6010,-82.7510,27.1,1111122 
COMPS,ioos:station:USF.COMPS:EGK:1,2009-09-02T18:00:00Z,27.6010,-82.7510,26.98,1111122 
COMPS,ioos:station:USF.COMPS:EGK:1,2009-09-02T18:06:00Z,27.6010,-82.7510,27.05,1111122 
COMPS,ioos:station:USF.COMPS:EGK:1,2009-09-02T18:12:00Z,27.6010,-82.7510,27.02,1111122 
COMPS,ioos:station:USF.COMPS:EGK:1,2009-09-02T18:18:00Z,27.6010,-82.7510,27.04,1111122 
COMPS,ioos:station:USF.COMPS:EGK:1,2009-09-02T18:24:00Z,27.6010,-82.7510,27.19,1111122 
COMPS,ioos:station:USF.COMPS:EGK:1,2009-09-02T18:30:00Z,27.6010,-82.7510,27.24,1111122 
COMPS,ioos:station:USF.COMPS:EGK:1,2009-09-02T18:36:00Z,27.6010,-82.7510,27.27,1111122 
COMPS,ioos:station:USF.COMPS:EGK:1,2009-09-02T18:42:00Z,27.6010,-82.7510,27.34,1111122 
COMPS,ioos:station:USF.COMPS:EGK:1,2009-09-02T18:48:00Z,27.6010,-82.7510,27.53,1111122 
COMPS,ioos:station:USF.COMPS:EGK:1,2009-09-02T18:54:00Z,27.6010,-82.7510,27.71,1111122 
COMPS,ioos:station:USF.COMPS:EGK:1,2009-09-02T19:00:00Z,27.6010,-82.7510,27.8,1111122 
COMPS,ioos:station:USF.COMPS:EGK:1,2009-09-02T19:06:00Z,27.6010,-82.7510,27.89,1111122 
COMPS,ioos:station:USF.COMPS:EGK:1,2009-09-02T19:12:00Z,27.6010,-82.7510,27.98,1111122 
COMPS,ioos:station:USF.COMPS:EGK:1,2009-09-02T19:18:00Z,27.6010,-82.7510,28.22,1111122 
COMPS,ioos:station:USF.COMPS:EGK:1,2009-09-02T19:24:00Z,27.6010,-82.7510,28.39,1111122 
COMPS,ioos:station:USF.COMPS:EGK:1,2009-09-02T19:30:00Z,27.6010,-82.7510,28.2,1111122 
COMPS,ioos:station:USF.COMPS:EGK:1,2009-09-02T19:36:00Z,27.6010,-82.7510,28.23,1111122 
COMPS,ioos:station:USF.COMPS:EGK:1,2009-09-02T19:42:00Z,27.6010,-82.7510,28.38,1111122 
COMPS,ioos:station:USF.COMPS:EGK:1,2009-09-02T19:48:00Z,27.6010,-82.7510,28.49,1111122 
COMPS,ioos:station:USF.COMPS:EGK:1,2009-09-02T19:54:00Z,27.6010,-82.7510,28.27,1111122 
COMPS,ioos:station:USF.COMPS:EGK:1,2009-09-02T20:00:00Z,27.6010,-82.7510,28.14,1111122 
COMPS,ioos:station:USF.COMPS:EGK:1,2009-09-02T20:06:00Z,27.6010,-82.7510,28.5,1111122 